^^
Station Historical Data
Daily Summary for April 16, 2018 Units:  Metric    English   Both
« Previous Day
Next Day »
Daily Weekly Monthly Yearly Custom
  High: Low: Average:
Temperature: -17.8 °C -3 °C -1.4 °C
Dew Point: -17.8 °C -6.6 °C -2.6 °C
Humidity: Humidity % 75 % 92 %
Wind Speed: 0 km/h 0 km/h 3.5 km/h
Wind Gust: 0 km/h - -
Wind:- - East
Pressure: 0 hPa 999.9 hPa -
Precipitation: 21.08 mm    
Historical Graphs
 
 
Tabular Data for April 16, 2018
Time Temperature Dew Point Pressure Wind Wind Speed Wind Gust Humidity Rainfall Rate (Hourly) solar Conditions
-17.8 °C -17.8 °C 0 hPa Calm     Humidity % 0 mm SoftwareType W/m2 Conditions
00:04 -2.5 °C -6.3 °C 1026.6 hPa East 4.8 km/h 20.9 km/h 75 % 0 mm WeatherDisplay:10.37 W/m2 RA
00:09 -2.6 °C -6.1 °C 1026.6 hPa East 1.6 km/h 16.1 km/h 77 % 0 mm WeatherDisplay:10.37 W/m2 OVC
00:14 -2.7 °C -6 °C 1026.6 hPa East 4.8 km/h 14.5 km/h 78 % 0 mm WeatherDisplay:10.37 W/m2 OVC
00:19 -2.8 °C -5.9 °C 1026.3 hPa East 9.7 km/h 22.5 km/h 79 % 0 mm WeatherDisplay:10.37 W/m2 OVC
00:24 -2.9 °C -5.8 °C 1026.3 hPa East 3.2 km/h 20.9 km/h 80 % 0 mm WeatherDisplay:10.37 W/m2 OVC
00:29 -2.9 °C -6.1 °C 1026.3 hPa East 3.2 km/h 20.9 km/h 79 % 0 mm WeatherDisplay:10.37 W/m2 OVC
00:34 -2.9 °C -6.1 °C 1026.3 hPa East 4.8 km/h 16.1 km/h 79 % 0 mm WeatherDisplay:10.37 W/m2 OVC
00:39 -2.9 °C -6.2 °C 1026.3 hPa ENE 1.6 km/h 19.3 km/h 78 % 0 mm WeatherDisplay:10.37 W/m2 OVC
00:49 -2.8 °C -6.1 °C 1026 hPa East 4.8 km/h 14.5 km/h 78 % 0 mm WeatherDisplay:10.37 W/m2 OVC
00:54 -2.8 °C -6.4 °C 1025.6 hPa ENE 11.3 km/h 25.7 km/h 76 % 0 mm WeatherDisplay:10.37 W/m2 OVC
00:59 -2.7 °C -6.6 °C 1026 hPa East 4.8 km/h 16.1 km/h 75 % 0 mm WeatherDisplay:10.37 W/m2 OVC
01:04 -2.7 °C -6.3 °C 1026 hPa East 8 km/h 12.9 km/h 76 % 0 mm WeatherDisplay:10.37 W/m2 OVC
01:09 -2.6 °C -6.3 °C 1025.6 hPa East 8 km/h 16.1 km/h 76 % 0 mm WeatherDisplay:10.37 W/m2 OVC
01:14 -2.6 °C -6.3 °C 1025.6 hPa East 3.2 km/h 14.5 km/h 76 % 0 mm WeatherDisplay:10.37 W/m2 OVC
01:19 -2.6 °C -6.2 °C 1025.3 hPa East 1.6 km/h 25.7 km/h 76 % 0 mm WeatherDisplay:10.37 W/m2 OVC
01:24 -2.6 °C -6.1 °C 1025.3 hPa East 9.7 km/h 20.9 km/h 77 % 0 mm WeatherDisplay:10.37 W/m2 OVC
01:29 -2.6 °C -6.2 °C 1025.3 hPa East 3.2 km/h 20.9 km/h 76 % 0 mm WeatherDisplay:10.37 W/m2 OVC
01:34 -2.6 °C -6.2 °C 1024.9 hPa East 11.3 km/h 19.3 km/h 76 % 0 mm WeatherDisplay:10.37 W/m2 OVC
01:39 -2.5 °C -6.2 °C 1024.9 hPa East 3.2 km/h 20.9 km/h 76 % 0 mm WeatherDisplay:10.37 W/m2 OVC
01:44 -2.5 °C -6 °C 1024.6 hPa East 8 km/h 20.9 km/h 77 % 0 mm WeatherDisplay:10.37 W/m2 OVC
01:49 -2.6 °C -6.1 °C 1024.6 hPa East 8 km/h 16.1 km/h 77 % 0 mm WeatherDisplay:10.37 W/m2 OVC
01:54 -2.6 °C -6.1 °C 1024.3 hPa East 4.8 km/h 22.5 km/h 77 % 0 mm WeatherDisplay:10.37 W/m2 OVC
01:59 -2.6 °C -6.1 °C 1024.3 hPa East 4.8 km/h 19.3 km/h 77 % 0 mm WeatherDisplay:10.37 W/m2 OVC
02:04 -2.7 °C -6.1 °C 1024.3 hPa East 3.2 km/h 16.1 km/h 77 % 0 mm WeatherDisplay:10.37 W/m2 OVC
02:09 -2.7 °C -6.2 °C 1024.3 hPa East 8 km/h 19.3 km/h 77 % 0 mm WeatherDisplay:10.37 W/m2 OVC
02:14 -2.6 °C -6.3 °C 1024.3 hPa East 4.8 km/h 16.1 km/h 76 % 0 mm WeatherDisplay:10.37 W/m2 OVC
02:19 -2.6 °C -6.1 °C 1024.3 hPa ESE 4.8 km/h 19.3 km/h 77 % 0 mm WeatherDisplay:10.37 W/m2 OVC
02:24 -2.6 °C -5.9 °C 1024.3 hPa ESE 4.8 km/h 12.9 km/h 78 % 0 mm WeatherDisplay:10.37 W/m2 OVC
02:29 -2.6 °C -5.6 °C 1024.3 hPa East 4.8 km/h 16.1 km/h 80 % 0 mm WeatherDisplay:10.37 W/m2 OVC
02:34 -2.7 °C -5.7 °C 1024.3 hPa East 9.7 km/h 20.9 km/h 80 % 0 mm WeatherDisplay:10.37 W/m2 OVC
02:39 -2.7 °C -5.6 °C 1023.9 hPa East 3.2 km/h 20.9 km/h 81 % 0 mm WeatherDisplay:10.37 W/m2 OVC
02:44 -2.7 °C -5.4 °C 1023.9 hPa East 4.8 km/h 19.3 km/h 82 % 0 mm WeatherDisplay:10.37 W/m2 OVC
02:49 -2.8 °C -5.3 °C 1023.9 hPa ESE 3.2 km/h 27.4 km/h 83 % 0 mm WeatherDisplay:10.37 W/m2 OVC
02:54 -2.8 °C -5.3 °C 1023.9 hPa ESE 3.2 km/h 19.3 km/h 83 % 0 mm WeatherDisplay:10.37 W/m2 OVC
02:59 -2.8 °C -5.1 °C 1023.6 hPa East 3.2 km/h 16.1 km/h 84 % 0 mm WeatherDisplay:10.37 W/m2 OVC
03:04 -2.8 °C -5.1 °C 1023.6 hPa East 3.2 km/h 14.5 km/h 84 % 0 mm WeatherDisplay:10.37 W/m2 OVC
03:09 -2.6 °C -4.7 °C 1023.2 hPa East 1.6 km/h 24.1 km/h 86 % 0.51 mm WeatherDisplay:10.37 W/m2 RA
03:14 -2.5 °C -4.4 °C 1023.2 hPa East 3.2 km/h 14.5 km/h 87 % 0.25 mm WeatherDisplay:10.37 W/m2 RA
03:19 -2.4 °C -4.2 °C 1023.2 hPa East 8 km/h 22.5 km/h 88 % 0.25 mm WeatherDisplay:10.37 W/m2 RA
03:24 -2.4 °C -3.9 °C 1023.2 hPa East 3.2 km/h 16.1 km/h 89 % 0.25 mm WeatherDisplay:10.37 W/m2 RA
03:29 -2.4 °C -4 °C 1023.2 hPa East 4.8 km/h 19.3 km/h 89 % 0.25 mm WeatherDisplay:10.37 W/m2 RA
03:34 -2.4 °C -4.1 °C 1023.2 hPa East 1.6 km/h 12.9 km/h 89 % 0.25 mm WeatherDisplay:10.37 W/m2 RA
03:39 -2.4 °C -3.8 °C 1022.9 hPa East 4.8 km/h 14.5 km/h 90 % 0.25 mm WeatherDisplay:10.37 W/m2 RA
03:44 -2.5 °C -4.1 °C 1022.9 hPa East 3.2 km/h 22.5 km/h 89 % 0 mm WeatherDisplay:10.37 W/m2 RA
03:49 -2.6 °C -4 °C 1022.9 hPa ENE 8 km/h 22.5 km/h 90 % 0.25 mm WeatherDisplay:10.37 W/m2 RA
03:54 -2.6 °C -4.1 °C 1022.9 hPa East 8 km/h 20.9 km/h 90 % 0.25 mm WeatherDisplay:10.37 W/m2 RA
03:59 -2.7 °C -4.1 °C 1022.6 hPa East 3.2 km/h 12.9 km/h 90 % 0 mm WeatherDisplay:10.37 W/m2 RA
04:04 -2.7 °C -4.2 °C 1022.2 hPa East 3.2 km/h 19.3 km/h 90 % 0.25 mm WeatherDisplay:10.37 W/m2 RA
04:09 -2.8 °C -4.1 °C 1022.2 hPa East 4.8 km/h 20.9 km/h 91 % 0.25 mm WeatherDisplay:10.37 W/m2 RA
04:14 -2.9 °C -4.1 °C 1022.2 hPa East 4.8 km/h 19.3 km/h 91 % 0 mm WeatherDisplay:10.37 W/m2 RA
04:19 -2.9 °C -4.2 °C 1021.9 hPa East 9.7 km/h 25.7 km/h 91 % 0.25 mm WeatherDisplay:10.37 W/m2 RA
04:24 -2.9 °C -4.2 °C 1021.9 hPa ENE 4.8 km/h 37 km/h 91 % 0.25 mm WeatherDisplay:10.37 W/m2 RA
04:29 -3 °C -4.3 °C 1022.2 hPa East 4.8 km/h 19.3 km/h 91 % 0.25 mm WeatherDisplay:10.37 W/m2 RA
04:34 -3 °C -4.1 °C 1021.9 hPa East 8 km/h 16.1 km/h 92 % 0.25 mm WeatherDisplay:10.37 W/m2 RA
04:39 -3 °C -4.1 °C 1021.6 hPa ESE 8 km/h 17.7 km/h 92 % 0.25 mm WeatherDisplay:10.37 W/m2 RA
04:44 -3 °C -4.1 °C 1021.6 hPa East 4.8 km/h 22.5 km/h 92 % 0 mm WeatherDisplay:10.37 W/m2 -SN
04:49 -3 °C -4.1 °C 1021.6 hPa East 1.6 km/h 11.3 km/h 92 % 0.25 mm WeatherDisplay:10.37 W/m2 -SN
04:54 -3 °C -4.1 °C 1021.2 hPa East 4.8 km/h 16.1 km/h 92 % 0 mm WeatherDisplay:10.37 W/m2 -SN
04:59 -3 °C -4 °C 1021.2 hPa East 3.2 km/h 16.1 km/h 93 % 0.25 mm WeatherDisplay:10.37 W/m2 -SN
05:04 -2.9 °C -3.9 °C 1021.6 hPa East 4.8 km/h 12.9 km/h 93 % 0 mm WeatherDisplay:10.37 W/m2 -SN
05:09 -2.9 °C -3.9 °C 1021.2 hPa East 3.2 km/h 12.9 km/h 93 % 0.25 mm WeatherDisplay:10.37 W/m2 -SN
05:14 -2.9 °C -3.9 °C 1021.2 hPa East 4.8 km/h 20.9 km/h 93 % 0 mm WeatherDisplay:10.37 W/m2 -SN
05:19 -2.9 °C -3.9 °C 1021.2 hPa East 1.6 km/h 14.5 km/h 93 % 0 mm WeatherDisplay:10.37 W/m2 -SN
05:24 -2.9 °C -3.9 °C 1020.9 hPa East 4.8 km/h 16.1 km/h 93 % 0.25 mm WeatherDisplay:10.37 W/m2 -SN
05:29 -2.9 °C -3.9 °C 1020.5 hPa East 3.2 km/h 20.9 km/h 93 % 0 mm WeatherDisplay:10.37 W/m2 -SN
05:34 -2.9 °C -3.9 °C 1020.5 hPa East 8 km/h 19.3 km/h 93 % 0.25 mm WeatherDisplay:10.37 W/m2 -SN
05:39 -2.9 °C -3.9 °C 1020.5 hPa ESE 4.8 km/h 22.5 km/h 93 % 0 mm WeatherDisplay:10.37 W/m2 -SN
05:44 -2.9 °C -3.9 °C 1020.5 hPa ESE 4.8 km/h 19.3 km/h 93 % 0.25 mm WeatherDisplay:10.37 W/m2 -SN
05:49 -2.9 °C -3.8 °C 1020.5 hPa East 4.8 km/h 12.9 km/h 93 % 0 mm WeatherDisplay:10.37 W/m2 -SN
05:54 -2.8 °C -3.8 °C 1020.2 hPa East 3.2 km/h 14.5 km/h 93 % 0 mm WeatherDisplay:10.37 W/m2 -SN
05:59 -2.9 °C -3.8 °C 1020.2 hPa East 4.8 km/h 19.3 km/h 93 % 0.25 mm WeatherDisplay:10.37 W/m2 -SN
06:04 -2.9 °C -3.8 °C 1020.2 hPa East 4.8 km/h 19.3 km/h 93 % 0 mm WeatherDisplay:10.37 W/m2 RA
06:09 -2.8 °C -3.7 °C 1019.9 hPa East 4.8 km/h 16.1 km/h 94 % 0.25 mm WeatherDisplay:10.37 W/m2 RA
06:14 -2.8 °C -3.7 °C 1019.9 hPa ENE 3.2 km/h 17.7 km/h 94 % 0 mm WeatherDisplay:10.37 W/m2 RA
06:19 -2.8 °C -3.7 °C 1019.9 hPa East 8 km/h 19.3 km/h 94 % 0 mm WeatherDisplay:10.37 W/m2 OVC
06:24 -2.8 °C -3.6 °C 1019.5 hPa East 4.8 km/h 24.1 km/h 94 % 0 mm WeatherDisplay:10.37 W/m2 OVC
06:29 -2.7 °C -3.6 °C 1019.9 hPa East 8 km/h 16.1 km/h 94 % 0 mm WeatherDisplay:10.37 W/m2 OVC
06:34 -2.7 °C -3.6 °C 1019.9 hPa East 1.6 km/h 12.9 km/h 94 % 0.25 mm WeatherDisplay:10.37 W/m2 RA
06:39 -2.7 °C -3.5 °C 1019.5 hPa East 9.7 km/h 24.1 km/h 94 % 0 mm WeatherDisplay:10.37 W/m2 RA
06:49 -2.6 °C -3.4 °C 1019.5 hPa East 3.2 km/h 14.5 km/h 94 % 0 mm WeatherDisplay:10.37 W/m2 OVC
06:54 -2.6 °C -3.4 °C 1019.2 hPa ESE 4.8 km/h 22.5 km/h 94 % 0 mm WeatherDisplay:10.37 W/m2 OVC
06:59 -2.5 °C -3.3 °C 1019.5 hPa East 4.8 km/h 11.3 km/h 94 % 0 mm WeatherDisplay:10.37 W/m2 OVC
07:04 -2.4 °C -3.3 °C 1019.5 hPa East 1.6 km/h 12.9 km/h 94 % 0.25 mm WeatherDisplay:10.37 W/m2 RA
07:09 -2.3 °C -3.2 °C 1019.2 hPa ESE 8 km/h 20.9 km/h 94 % 0 mm WeatherDisplay:10.37 W/m2 RA
07:14 -2.3 °C -3.1 °C 1019.2 hPa East 4.8 km/h 19.3 km/h 94 % 0 mm WeatherDisplay:10.37 W/m2 OVC
07:19 -2.2 °C -3 °C 1019.2 hPa East 9.7 km/h 22.5 km/h 94 % 0.51 mm WeatherDisplay:10.37 W/m2 -PL
07:24 -2.1 °C -2.9 °C 1018.8 hPa East 4.8 km/h 19.3 km/h 94 % 0 mm WeatherDisplay:10.37 W/m2 -PL
07:29 -2 °C -2.8 °C 1018.8 hPa East 4.8 km/h 20.9 km/h 94 % 0.25 mm WeatherDisplay:10.37 W/m2 -PL
07:34 -2 °C -2.8 °C 1018.8 hPa ESE 4.8 km/h 11.3 km/h 94 % 0 mm WeatherDisplay:10.37 W/m2 -PL
07:39 -2 °C -2.8 °C 1018.8 hPa East 3.2 km/h 14.5 km/h 94 % 0.25 mm WeatherDisplay:10.37 W/m2 -PL
07:44 -1.9 °C -2.8 °C 1018.8 hPa East 4.8 km/h 19.3 km/h 94 % 0 mm WeatherDisplay:10.37 W/m2 -PL
07:49 -1.9 °C -2.8 °C 1018.8 hPa East 4.8 km/h 22.5 km/h 94 % 0 mm WeatherDisplay:10.37 W/m2 -PL
07:54 -1.9 °C -2.7 °C 1018.5 hPa East 8 km/h 19.3 km/h 94 % 0.25 mm WeatherDisplay:10.37 W/m2 -PL
07:59 -1.9 °C -2.7 °C 1018.5 hPa East 1.6 km/h 19.3 km/h 94 % 0 mm WeatherDisplay:10.37 W/m2 -PL
08:04 -1.9 °C -2.7 °C 1018.2 hPa East 4.8 km/h 22.5 km/h 94 % 0.25 mm WeatherDisplay:10.37 W/m2 -PL
08:09 -1.8 °C -2.7 °C 1018.5 hPa East 8 km/h 19.3 km/h 94 % 0 mm WeatherDisplay:10.37 W/m2 -PL
08:14 -1.8 °C -2.7 °C 1018.2 hPa East 3.2 km/h 19.3 km/h 94 % 0.25 mm WeatherDisplay:10.37 W/m2 -PL
08:19 -1.8 °C -2.7 °C 1017.8 hPa East 4.8 km/h 16.1 km/h 94 % 0.25 mm WeatherDisplay:10.37 W/m2 -PL
08:24 -1.8 °C -2.7 °C 1017.8 hPa East 8 km/h 27.4 km/h 94 % 0.25 mm WeatherDisplay:10.37 W/m2 -PL
08:29 -1.8 °C -2.6 °C 1017.5 hPa East 4.8 km/h 12.9 km/h 94 % 0 mm WeatherDisplay:10.37 W/m2 -PL
08:34 -1.8 °C -2.6 °C 1017.5 hPa East 8 km/h 19.3 km/h 94 % 0.25 mm WeatherDisplay:10.37 W/m2 -PL
08:39 -1.7 °C -2.6 °C 1017.5 hPa East 8 km/h 16.1 km/h 94 % 0 mm WeatherDisplay:10.37 W/m2 -PL
08:44 -1.7 °C -2.6 °C 1017.5 hPa ESE 3.2 km/h 14.5 km/h 94 % 0.25 mm WeatherDisplay:10.37 W/m2 -PL
08:49 -1.7 °C -2.4 °C 1017.2 hPa East 8 km/h 19.3 km/h 95 % 0.25 mm WeatherDisplay:10.37 W/m2 -PL
08:54 -1.7 °C -2.4 °C 1017.2 hPa East 3.2 km/h 14.5 km/h 95 % 0 mm WeatherDisplay:10.37 W/m2 -PL
08:59 -1.6 °C -2.3 °C 1016.8 hPa ENE 8 km/h 16.1 km/h 95 % 0.25 mm WeatherDisplay:10.37 W/m2 -PL
09:04 -1.6 °C -2.3 °C 1016.8 hPa ENE 3.2 km/h 19.3 km/h 95 % 0.51 mm WeatherDisplay:10.37 W/m2 -PL
09:09 -1.3 °C -2.1 °C 1016.8 hPa East 8 km/h 17.7 km/h 95 % 0.51 mm WeatherDisplay:10.37 W/m2 -PL
09:14 -1.1 °C -1.8 °C 1016.8 hPa East 3.2 km/h 20.9 km/h 95 % 0.51 mm WeatherDisplay:10.37 W/m2 -PL
09:19 -1.1 °C -1.8 °C 1016.8 hPa East 4.8 km/h 32.2 km/h 95 % 0.51 mm WeatherDisplay:10.37 W/m2 -PL
09:24 -1 °C -1.7 °C 1016.5 hPa East 11.3 km/h 22.5 km/h 95 % 0.51 mm WeatherDisplay:10.37 W/m2 -PL
09:29 -0.9 °C -1.7 °C 1016.5 hPa East 8 km/h 24.1 km/h 95 % 0.25 mm WeatherDisplay:10.37 W/m2 -PL
09:34 -0.9 °C -1.6 °C 1016.5 hPa ESE 1.6 km/h 24.1 km/h 95 % 0.25 mm WeatherDisplay:10.37 W/m2 -PL
09:39 -0.9 °C -1.6 °C 1016.5 hPa ESE 1.6 km/h 14.5 km/h 95 % 0.51 mm WeatherDisplay:10.37 W/m2 -PL
09:44 -0.8 °C -1.6 °C 1016.1 hPa ESE 4.8 km/h 12.9 km/h 95 % 0.25 mm WeatherDisplay:10.37 W/m2 -PL
09:49 -0.8 °C -1.6 °C 1016.1 hPa East 8 km/h 16.1 km/h 95 % 0.25 mm WeatherDisplay:10.37 W/m2 -PL
09:54 -0.8 °C -1.6 °C 1015.8 hPa East 4.8 km/h 11.3 km/h 95 % 0.25 mm WeatherDisplay:10.37 W/m2 -PL
09:59 -0.8 °C -1.5 °C 1016.1 hPa East 3.2 km/h 16.1 km/h 95 % 0.25 mm WeatherDisplay:10.37 W/m2 -PL
10:04 -0.8 °C -1.6 °C 1015.8 hPa East 8 km/h 20.9 km/h 95 % 0 mm WeatherDisplay:10.37 W/m2 -PL
10:09 -0.9 °C -1.6 °C 1015.8 hPa East 3.2 km/h 19.3 km/h 95 % 0.25 mm WeatherDisplay:10.37 W/m2 -PL
10:14 -0.9 °C -1.6 °C 1015.8 hPa East 3.2 km/h 14.5 km/h 95 % 0 mm WeatherDisplay:10.37 W/m2 RA
10:19 -0.9 °C -1.6 °C 1015.5 hPa East 4.8 km/h 24.1 km/h 95 % 0.25 mm WeatherDisplay:10.37 W/m2 RA
10:24 -0.9 °C -1.6 °C 1015.8 hPa East 4.8 km/h 20.9 km/h 95 % 0.25 mm WeatherDisplay:10.37 W/m2 RA
10:29 -0.9 °C -1.6 °C 1015.5 hPa ESE 11.3 km/h 24.1 km/h 95 % 0 mm WeatherDisplay:10.37 W/m2 RA
10:39 -0.9 °C -1.6 °C 1015.5 hPa East 8 km/h 24.1 km/h 95 % 0.25 mm WeatherDisplay:10.37 W/m2 RA
10:44 -0.9 °C -1.7 °C 1015.1 hPa East 8 km/h 14.5 km/h 95 % 0 mm WeatherDisplay:10.37 W/m2 RA
10:49 -0.9 °C -1.7 °C 1014.8 hPa ESE 4.8 km/h 19.3 km/h 95 % 0.25 mm WeatherDisplay:10.37 W/m2 RA
10:59 -0.9 °C -1.6 °C 1014.8 hPa ENE 4.8 km/h 20.9 km/h 95 % 0 mm WeatherDisplay:10.37 W/m2 OVC
11:04 -0.9 °C -1.6 °C 1014.8 hPa ENE 3.2 km/h 12.9 km/h 95 % 0 mm WeatherDisplay:10.37 W/m2 OVC
11:09 -0.9 °C -1.6 °C 1014.8 hPa East 4.8 km/h 19.3 km/h 95 % 0 mm WeatherDisplay:10.37 W/m2 OVC
11:14 -0.8 °C -1.6 °C 1014.4 hPa ENE 8 km/h 14.5 km/h 95 % 0 mm WeatherDisplay:10.37 W/m2 OVC
11:19 -0.8 °C -1.6 °C 1014.8 hPa East 3.2 km/h 29 km/h 95 % 0 mm WeatherDisplay:10.37 W/m2 OVC
11:24 -0.8 °C -1.6 °C 1014.8 hPa East 3.2 km/h 19.3 km/h 95 % 0 mm WeatherDisplay:10.37 W/m2 OVC
11:29 -0.8 °C -1.6 °C 1014.4 hPa East 3.2 km/h 16.1 km/h 95 % 0 mm WeatherDisplay:10.37 W/m2 OVC
11:34 -0.8 °C -1.5 °C 1014.1 hPa ENE 4.8 km/h 19.3 km/h 95 % 0.25 mm WeatherDisplay:10.37 W/m2 RA
11:39 -0.6 °C -1.3 °C 1014.1 hPa ENE 8 km/h 16.1 km/h 95 % 0.51 mm WeatherDisplay:10.37 W/m2 RA
11:44 -0.5 °C -1.2 °C 1014.4 hPa East 4.8 km/h 16.1 km/h 95 % 0.25 mm WeatherDisplay:10.37 W/m2 RA
11:49 -0.4 °C -1.2 °C 1014.1 hPa East 8 km/h 19.3 km/h 95 % 0.25 mm WeatherDisplay:10.37 W/m2 RA
11:54 -0.4 °C -1.1 °C 1014.1 hPa East 3.2 km/h 16.1 km/h 95 % 0.25 mm WeatherDisplay:10.37 W/m2 -PL
11:59 -0.3 °C -1.1 °C 1013.8 hPa East 3.2 km/h 14.5 km/h 95 % 0.51 mm WeatherDisplay:10.37 W/m2 -PL
12:04 -0.3 °C -1 °C 1013.4 hPa ESE 4.8 km/h 14.5 km/h 95 % 0.25 mm WeatherDisplay:10.37 W/m2 -PL
12:09 -0.3 °C -1 °C 1013.4 hPa East 4.8 km/h 27.4 km/h 95 % 0 mm WeatherDisplay:10.37 W/m2 -PL
12:14 -0.3 °C -1 °C 1013.4 hPa East 3.2 km/h 16.1 km/h 95 % 0 mm WeatherDisplay:10.37 W/m2 -PL
12:19 -0.3 °C -1.1 °C 1013.1 hPa East 4.8 km/h 12.9 km/h 95 % 0 mm WeatherDisplay:10.37 W/m2 -PL
12:24 -0.3 °C -1 °C 1012.8 hPa ENE 9.7 km/h 27.4 km/h 95 % 0.25 mm WeatherDisplay:10.37 W/m2 -PL
12:29 -0.3 °C -1.1 °C 1012.4 hPa ENE 4.8 km/h 12.9 km/h 95 % 0.25 mm WeatherDisplay:10.37 W/m2 -PL
12:34 -0.3 °C -1 °C 1011.7 hPa East 1.6 km/h 19.3 km/h 95 % 0 mm WeatherDisplay:10.37 W/m2 -PL
12:39 -0.3 °C -1.1 °C 1012.1 hPa SE 3.2 km/h 17.7 km/h 95 % 0.25 mm WeatherDisplay:10.37 W/m2 -PL
12:44 -0.3 °C -1.1 °C 1012.4 hPa East 4.8 km/h 19.3 km/h 95 % 0 mm WeatherDisplay:10.37 W/m2 -PL
12:49 -0.4 °C -1.1 °C 1012.4 hPa SE 1.6 km/h 19.3 km/h 95 % 0 mm WeatherDisplay:10.37 W/m2 -PL
12:54 -0.4 °C -1.1 °C 1012.8 hPa Calm     95 % 0 mm WeatherDisplay:10.37 W/m2 -PL
12:59 -0.4 °C -1.1 °C 1012.4 hPa Calm     95 % 0 mm WeatherDisplay:10.37 W/m2 -PL
13:04 -0.4 °C -1.1 °C 1012.1 hPa Calm     95 % 0.25 mm WeatherDisplay:10.37 W/m2 -PL
13:09 -0.3 °C -1.1 °C 1012.1 hPa Calm     95 % 0.25 mm WeatherDisplay:10.37 W/m2 -PL
13:14 -0.3 °C -1.1 °C 1012.1 hPa Calm     95 % 0 mm WeatherDisplay:10.37 W/m2 RA
13:19 -0.3 °C -1.1 °C 1011.1 hPa Calm     95 % 0.25 mm WeatherDisplay:10.37 W/m2 RA
13:24 -0.3 °C -1 °C 1011.1 hPa Calm     95 % 0.25 mm WeatherDisplay:10.37 W/m2 RA
13:29 -0.3 °C -1 °C 1011.1 hPa Calm     95 % 0.25 mm WeatherDisplay:10.37 W/m2 RA
13:34 -0.2 °C -0.9 °C 1011.1 hPa Calm     95 % 0.51 mm WeatherDisplay:10.37 W/m2 RA
13:39 -0.1 °C -0.8 °C 1011.1 hPa Calm     95 % 0.25 mm WeatherDisplay:10.37 W/m2 RA
13:44 -0.1 °C -0.6 °C 1010.7 hPa Calm     96 % 0.25 mm WeatherDisplay:10.37 W/m2 -RA
13:49 -0.1 °C -0.6 °C 1010.7 hPa Calm     96 % 0 mm WeatherDisplay:10.37 W/m2 -RA
13:54 -0.1 °C -0.6 °C 1010.7 hPa Calm     96 % 0.25 mm WeatherDisplay:10.37 W/m2 -RA
13:59 -0.1 °C -0.6 °C 1010.4 hPa Calm     96 % 0.25 mm WeatherDisplay:10.37 W/m2 -RA
14:04 -0.1 °C -0.6 °C 1010.7 hPa Calm     96 % 0 mm WeatherDisplay:10.37 W/m2 -RA
14:09 -0.1 °C -0.6 °C 1010 hPa Calm     96 % 0.25 mm WeatherDisplay:10.37 W/m2 -RA
14:14 0 °C -0.6 °C 1010.4 hPa Calm     96 % 0.25 mm WeatherDisplay:10.37 W/m2 -RA
14:19 0 °C -0.6 °C 1010 hPa Calm     96 % 0.25 mm WeatherDisplay:10.37 W/m2 -RA
14:24 0 °C -0.6 °C 1010 hPa Calm     96 % 0.25 mm WeatherDisplay:10.37 W/m2 -RA
14:29 0.1 °C -0.5 °C 1009.7 hPa Calm     96 % 0.25 mm WeatherDisplay:10.37 W/m2 -RA
14:34 0.1 °C -0.5 °C 1009.4 hPa Calm     96 % 0 mm WeatherDisplay:10.37 W/m2 -RA
14:39 0.1 °C -0.5 °C 1009.7 hPa Calm     96 % 0.25 mm WeatherDisplay:10.37 W/m2 -RA
14:49 0.1 °C -0.5 °C 1009 hPa Calm     96 % 0.25 mm WeatherDisplay:10.37 W/m2 -RA
14:54 0.1 °C -0.5 °C 1008.7 hPa Calm     96 % 0.25 mm WeatherDisplay:10.37 W/m2 -RA
14:59 0.1 °C -0.4 °C 1008.4 hPa Calm     96 % 0 mm WeatherDisplay:10.37 W/m2 -RA
15:04 0.1 °C -0.4 °C 1008.4 hPa Calm     96 % 0 mm WeatherDisplay:10.37 W/m2 -RA
15:09 0.1 °C -0.4 °C 1008.4 hPa Calm     96 % 0 mm WeatherDisplay:10.37 W/m2 -RA
15:14 0.1 °C -0.5 °C 1008.4 hPa Calm     96 % 0 mm WeatherDisplay:10.37 W/m2 -RA
15:19 0.1 °C -0.5 °C 1008 hPa Calm     96 % 0 mm WeatherDisplay:10.37 W/m2 -RA
15:24 0.1 °C -0.5 °C 1008 hPa Calm     96 % 0 mm WeatherDisplay:10.37 W/m2 -RA
15:29 0.1 °C -0.5 °C 1007.7 hPa Calm     96 % 0 mm WeatherDisplay:10.37 W/m2 -RA
15:34 0.1 °C -0.5 °C 1007.3 hPa Calm     96 % 0 mm WeatherDisplay:10.37 W/m2 -RA
15:39 0.1 °C -0.5 °C 1007.3 hPa Calm     96 % 0.25 mm WeatherDisplay:10.37 W/m2 -RA
15:44 0.1 °C -0.4 °C 1007 hPa Calm     96 % 0.51 mm WeatherDisplay:10.37 W/m2 -RA
15:49 0.2 °C -0.4 °C 1007 hPa Calm     96 % 0.25 mm WeatherDisplay:10.37 W/m2 -RA
15:54 0.2 °C -0.3 °C 1006.7 hPa Calm     96 % 0 mm WeatherDisplay:10.37 W/m2 -RA
15:59 0.2 °C -0.3 °C 1006.7 hPa Calm     96 % 0.25 mm WeatherDisplay:10.37 W/m2 -RA
16:09 0.3 °C -0.3 °C 1006.3 hPa Calm     96 % 0.25 mm WeatherDisplay:10.37 W/m2 -RA
16:14 0.2 °C -0.3 °C 1006.3 hPa Calm     96 % 0 mm WeatherDisplay:10.37 W/m2 -RA
16:19 0.2 °C -0.4 °C 1006.3 hPa Calm     96 % 0 mm WeatherDisplay:10.37 W/m2 -RA
16:24 0.2 °C -0.4 °C 1006 hPa Calm     96 % 0 mm WeatherDisplay:10.37 W/m2 -RA
16:29 0.2 °C -0.4 °C 1006 hPa Calm     96 % 0 mm WeatherDisplay:10.37 W/m2 -RA
16:34 0.2 °C -0.4 °C 1006.3 hPa Calm     96 % 0 mm WeatherDisplay:10.37 W/m2 -RA
16:39 0.2 °C -0.4 °C 1006.3 hPa Calm     96 % 0 mm WeatherDisplay:10.37 W/m2 -RA
16:44 0.2 °C -0.4 °C 1006.3 hPa Calm     96 % 0 mm WeatherDisplay:10.37 W/m2 -RA
16:49 0.2 °C -0.4 °C 1005.6 hPa Calm     96 % 0 mm WeatherDisplay:10.37 W/m2 -RA
16:54 0.2 °C -0.4 °C 1005.6 hPa Calm     96 % 0 mm WeatherDisplay:10.37 W/m2 -RA
16:59 0.2 °C -0.4 °C 1005.6 hPa Calm     96 % 0 mm WeatherDisplay:10.37 W/m2 -RA
17:04 0.2 °C -0.3 °C 1005.6 hPa Calm     96 % 0 mm WeatherDisplay:10.37 W/m2 -RA
22:25 0.3 °C 0.3 °C 1001.2 hPa Calm     100 % 0 mm WeatherDisplay:10.37 W/m2 -RA
22:30 0.3 °C 0.3 °C 1000.9 hPa Calm     100 % 0 mm WeatherDisplay:10.37 W/m2 -RA
22:35 0.3 °C 0.3 °C 1000.9 hPa Calm     100 % 0 mm WeatherDisplay:10.37 W/m2 -RA
22:40 0.3 °C 0.3 °C 1001.2 hPa Calm     100 % 0 mm WeatherDisplay:10.37 W/m2 -RA
22:45 0.4 °C 0.4 °C 1000.9 hPa Calm     100 % 0 mm WeatherDisplay:10.37 W/m2 -RA
22:50 0.4 °C 0.4 °C 1001.2 hPa Calm     100 % 0 mm WeatherDisplay:10.37 W/m2 -RA
22:55 0.4 °C 0.4 °C 1000.9 hPa Calm     100 % 0 mm WeatherDisplay:10.37 W/m2 -RA
23:00 0.4 °C 0.4 °C 1000.9 hPa Calm     100 % 0 mm WeatherDisplay:10.37 W/m2 -RA
23:05 0.4 °C 0.4 °C 1000.9 hPa Calm     100 % 0 mm WeatherDisplay:10.37 W/m2 -RA
23:10 0.4 °C 0.4 °C 1000.6 hPa Calm     100 % 0 mm WeatherDisplay:10.37 W/m2 -RA
23:15 0.4 °C 0.4 °C 1000.6 hPa Calm     100 % 0 mm WeatherDisplay:10.37 W/m2 -RA
23:20 0.4 °C 0.4 °C 1000.6 hPa Calm     100 % 0 mm WeatherDisplay:10.37 W/m2 -RA
23:25 0.4 °C 0.4 °C 1000.6 hPa Calm     100 % 0 mm WeatherDisplay:10.37 W/m2 -RA
23:30 0.4 °C 0.4 °C 1000.2 hPa Calm     100 % 0 mm WeatherDisplay:10.37 W/m2 -RA
23:35 0.4 °C 0.4 °C 1000.2 hPa Calm     100 % 0 mm WeatherDisplay:10.37 W/m2 -RA
23:40 0.4 °C 0.4 °C 1000.2 hPa Calm     100 % 0 mm WeatherDisplay:10.37 W/m2 -RA
23:45 0.4 °C 0.4 °C 999.9 hPa Calm     100 % 0 mm WeatherDisplay:10.37 W/m2 -RA
23:50 0.4 °C 0.4 °C 999.9 hPa Calm     100 % 0 mm WeatherDisplay:10.37 W/m2 OVC
23:55 0.4 °C 0.4 °C 1000.2 hPa Calm     100 % 0 mm WeatherDisplay:10.37 W/m2 OVC
Juneau County Weather
Compliments of Weather Underground - 2.5 mb